Retour au catalogue

NOAA 16 DEB

ActifPO
NORAD 41198·DEBRIS·🇺🇸 United States

Lancé Sep 21, 2000 depuis Vandenberg Space Force Base

Loading…

Prochains Passages (prochaines 24 heures)

TLE

FraisSource: Space-Track

Époque: Sep 13, 2026, 06:52 UTC

1 41198U 00055DB  26256.28632774  .00007523  00000-0  20444-2 0  9996
2 41198  98.9092  16.6098 0019986 241.6168 118.3008 14.47706394554531

Suivez NOAA 16 DEB en temps réel avec AllMySat

Download on the App Store